EWG2T LGSR-EDDL

Flight info

Callsign EWG2T
Flight time 3h 10m
Altitude 34000
Route MADEX UL53 KOR UL613 XANIS DCT TUMBO DCT TAZ DCT KUSIB DCT PODET DCT WIMMI DCT RENKA DCT EXITI DCT TESDU DCT AMETU T852 TINSA T854 DOMUX DOMUX1A
Aircraft A321/M-SDE3FGHIRWY/LB1

Departure

Time 2026-05-09 20:00
Airport Santorini International Airport (LGSR)

Arrival

Time 2026-05-09 23:10
Airport Düsseldorf Airport (EDDL)
Time Latitude Longitude Altitude Speed Heading
2026-05-09 19:04 36.40305 25.47401 95 ft 0 kts 249°
2026-05-09 19:50 36.40309 25.47415 97 ft 3 kts 249°
2026-05-09 19:51 36.40316 25.47436 96 ft 3 kts 227°
2026-05-09 19:51 36.40332 25.47447 96 ft 3 kts 179°
2026-05-09 19:51 36.40350 25.47443 95 ft 1 kts 159°
2026-05-09 19:51 36.40333 25.47451 97 ft 1 kts 159°
2026-05-09 19:56 36.40329 25.47453 95 ft 3 kts 159°
2026-05-09 19:56 36.40285 25.47474 96 ft 10 kts 158°
2026-05-09 19:56 36.40274 25.47560 95 ft 13 kts 89°
2026-05-09 19:56 36.40214 25.47608 95 ft 8 kts 159°
2026-05-09 19:57 36.40132 25.47646 94 ft 17 kts 159°
2026-05-09 19:57 36.40015 25.47703 93 ft 19 kts 159°
2026-05-09 19:57 36.39885 25.47763 92 ft 21 kts 159°
2026-05-09 19:57 36.39743 25.47831 87 ft 23 kts 159°
2026-05-09 19:58 36.39588 25.47903 84 ft 25 kts 159°
2026-05-09 19:58 36.39423 25.47981 72 ft 26 kts 159°
2026-05-09 19:58 36.39248 25.48064 70 ft 28 kts 159°
2026-05-09 19:58 36.39062 25.48153 60 ft 28 kts 159°
2026-05-09 19:59 36.39009 25.48242 60 ft 14 kts 73°
2026-05-09 19:59 36.39044 25.48327 57 ft 6 kts 352°
2026-05-09 19:59 36.39062 25.48321 62 ft 1 kts 338°
2026-05-09 19:59 36.39203 25.48254 65 ft 54 kts 339°
2026-05-09 20:00 36.39752 25.47995 86 ft 114 kts 339°
2026-05-09 20:00 36.40638 25.47578 221 ft 147 kts 339°
2026-05-09 20:00 36.41578 25.47120 812 ft 146 kts 340°
2026-05-09 20:00 36.42598 25.46857 1274 ft 157 kts 342°
2026-05-09 20:01 36.43702 25.46543 1502 ft 171 kts 340°
2026-05-09 20:01 36.44918 25.46167 1717 ft 188 kts 341°
2026-05-09 20:01 36.46236 25.45760 2040 ft 202 kts 341°
2026-05-09 20:01 36.47676 25.45310 2183 ft 228 kts 341°
2026-05-09 20:02 36.49317 25.44796 2230 ft 257 kts 342°
2026-05-09 20:02 36.51047 25.44258 2260 ft 260 kts 342°
2026-05-09 20:02 36.52828 25.43708 2299 ft 259 kts 343°
2026-05-09 20:03 36.56333 25.42627 3511 ft 264 kts 343°
2026-05-09 20:03 36.58121 25.42073 4205 ft 266 kts 343°
2026-05-09 20:03 36.59918 25.41515 4898 ft 267 kts 343°
2026-05-09 20:03 36.61732 25.40949 5557 ft 270 kts 343°
2026-05-09 20:04 36.63564 25.40373 6207 ft 273 kts 342°
2026-05-09 20:04 36.65297 25.39451 6802 ft 271 kts 321°
2026-05-09 20:04 36.66591 25.37780 7402 ft 268 kts 304°
2026-05-09 20:04 36.67646 25.35860 8055 ft 269 kts 301°
2026-05-09 20:05 36.68691 25.33923 8748 ft 269 kts 302°
2026-05-09 20:05 36.69745 25.31995 9433 ft 270 kts 302°
2026-05-09 20:05 36.70810 25.30066 10105 ft 270 kts 302°
2026-05-09 20:05 36.71903 25.28097 10447 ft 283 kts 302°
2026-05-09 20:06 36.73060 25.26013 10659 ft 300 kts 303°
2026-05-09 20:06 36.74266 25.23854 10858 ft 315 kts 303°
2026-05-09 20:06 36.75565 25.21526 11046 ft 331 kts 303°
2026-05-09 20:06 36.76892 25.19147 11246 ft 345 kts 303°
2026-05-09 20:07 36.78290 25.16638 11672 ft 350 kts 303°
2026-05-09 20:07 36.79676 25.14166 12207 ft 352 kts 303°
2026-05-09 20:07 36.81083 25.11656 12772 ft 354 kts 303°
2026-05-09 20:07 36.82494 25.09129 13352 ft 355 kts 303°
2026-05-09 20:08 36.83909 25.06588 13893 ft 357 kts 303°
2026-05-09 20:08 36.86762 25.01463 14854 ft 361 kts 303°
2026-05-09 20:08 36.88193 24.98876 15336 ft 363 kts 303°
2026-05-09 20:09 36.89632 24.96266 15814 ft 365 kts 303°
2026-05-09 20:09 36.91080 24.93646 16267 ft 368 kts 303°
2026-05-09 20:09 36.92538 24.91013 16725 ft 370 kts 303°
2026-05-09 20:09 36.94012 24.88352 17171 ft 372 kts 303°
2026-05-09 20:10 36.95486 24.85685 17609 ft 375 kts 303°
2026-05-09 20:10 36.96984 24.82996 18046 ft 377 kts 303°
2026-05-09 20:10 36.98488 24.80290 18451 ft 380 kts 303°
2026-05-09 20:10 36.99997 24.77567 18817 ft 382 kts 303°
2026-05-09 20:11 37.01520 24.74816 19194 ft 385 kts 303°
2026-05-09 20:11 37.03040 24.72054 19565 ft 387 kts 303°
2026-05-09 20:11 37.04571 24.69275 19933 ft 389 kts 303°
2026-05-09 20:11 37.06106 24.66474 20296 ft 391 kts 303°
2026-05-09 20:12 37.07643 24.63691 20655 ft 393 kts 303°
2026-05-09 20:12 37.09202 24.60863 21008 ft 395 kts 303°
2026-05-09 20:12 37.10758 24.58019 21350 ft 397 kts 303°
2026-05-09 20:12 37.12330 24.55155 21694 ft 400 kts 303°
2026-05-09 20:13 37.13905 24.52278 22024 ft 402 kts 303°
2026-05-09 20:13 37.15495 24.49381 22358 ft 404 kts 303°
2026-05-09 20:13 37.17092 24.46464 22696 ft 406 kts 303°
2026-05-09 20:13 37.18693 24.43534 23037 ft 409 kts 303°
2026-05-09 20:14 37.20306 24.40580 23355 ft 411 kts 304°
2026-05-09 20:14 37.21880 24.37570 23635 ft 413 kts 302°
2026-05-09 20:14 37.23421 24.34517 23889 ft 415 kts 302°
2026-05-09 20:14 37.24966 24.31449 24162 ft 416 kts 302°
2026-05-09 20:15 37.26508 24.28369 24437 ft 417 kts 302°
2026-05-09 20:15 37.28054 24.25282 24707 ft 418 kts 302°
2026-05-09 20:15 37.29608 24.22188 24975 ft 420 kts 302°
2026-05-09 20:15 37.31168 24.19078 25241 ft 421 kts 302°
2026-05-09 20:16 37.32706 24.16003 25488 ft 422 kts 302°
2026-05-09 20:16 37.34296 24.12837 25745 ft 423 kts 302°
2026-05-09 20:16 37.35866 24.09712 25990 ft 424 kts 302°
2026-05-09 20:16 37.37425 24.06610 26219 ft 425 kts 302°
2026-05-09 20:17 37.39005 24.03468 26460 ft 426 kts 302°
2026-05-09 20:17 37.40581 24.00307 26681 ft 427 kts 302°
2026-05-09 20:17 37.42155 23.97132 26900 ft 428 kts 301°
2026-05-09 20:17 37.43731 23.93956 27140 ft 428 kts 302°
2026-05-09 20:18 37.45308 23.90783 27442 ft 427 kts 302°
2026-05-09 20:18 37.46883 23.87619 27741 ft 426 kts 302°
2026-05-09 20:18 37.48448 23.84466 28037 ft 424 kts 302°
2026-05-09 20:18 37.50020 23.81320 28327 ft 423 kts 302°
2026-05-09 20:19 37.51587 23.78180 28612 ft 422 kts 302°
2026-05-09 20:19 37.53146 23.75052 28889 ft 421 kts 302°
2026-05-09 20:19 37.54703 23.71929 29162 ft 420 kts 301°
2026-05-09 20:19 37.56254 23.68806 29428 ft 420 kts 301°
2026-05-09 20:20 37.57798 23.65683 29714 ft 419 kts 301°
2026-05-09 20:20 37.59335 23.62570 29985 ft 418 kts 301°
2026-05-09 20:20 37.60871 23.59461 30216 ft 417 kts 301°
2026-05-09 20:20 37.62382 23.56399 30443 ft 416 kts 301°
2026-05-09 20:21 37.63904 23.53299 30672 ft 415 kts 301°
2026-05-09 20:21 37.65421 23.50202 30866 ft 414 kts 301°
2026-05-09 20:21 37.66935 23.47116 31074 ft 413 kts 301°
2026-05-09 20:21 37.68454 23.44029 31276 ft 413 kts 301°
2026-05-09 20:22 37.69967 23.40946 31470 ft 412 kts 301°
2026-05-09 20:22 37.71480 23.37868 31668 ft 412 kts 301°
2026-05-09 20:22 37.72990 23.34793 31856 ft 411 kts 301°
2026-05-09 20:22 37.74494 23.31716 32045 ft 411 kts 301°
2026-05-09 20:23 37.75970 23.28686 32223 ft 410 kts 301°
2026-05-09 20:23 37.77464 23.25619 32402 ft 410 kts 301°
2026-05-09 20:23 37.78963 23.22555 32579 ft 409 kts 301°
2026-05-09 20:23 37.80461 23.19494 32757 ft 409 kts 302°
2026-05-09 20:24 37.81954 23.16435 32918 ft 408 kts 302°
2026-05-09 20:24 37.83447 23.13370 33093 ft 408 kts 302°
2026-05-09 20:24 37.84925 23.10322 33248 ft 407 kts 301°
2026-05-09 20:24 37.86411 23.07263 33396 ft 407 kts 301°
2026-05-09 20:25 37.87894 23.04209 33553 ft 407 kts 301°
2026-05-09 20:25 37.89378 23.01152 33697 ft 407 kts 301°
2026-05-09 20:25 37.90358 22.99130 33798 ft 407 kts 301°
2026-05-09 20:25 37.92365 22.95075 33985 ft 406 kts 304°
2026-05-09 20:26 37.93507 22.93195 34054 ft 407 kts 310°
2026-05-09 20:26 37.97595 22.88195 34087 ft 408 kts 316°
2026-05-09 20:27 38.01812 22.83366 34063 ft 408 kts 316°
2026-05-09 20:27 38.06002 22.78503 34058 ft 408 kts 316°
2026-05-09 20:28 38.10191 22.73614 34056 ft 409 kts 315°
2026-05-09 20:28 38.14383 22.68707 34062 ft 410 kts 315°
2026-05-09 20:29 38.20699 22.61367 34060 ft 410 kts 316°
2026-05-09 20:29 38.24893 22.56521 34083 ft 409 kts 316°
2026-05-09 20:30 38.29076 22.51647 34071 ft 408 kts 315°
2026-05-09 20:30 38.33254 22.46757 34069 ft 408 kts 315°
2026-05-09 20:31 38.37436 22.41854 34076 ft 409 kts 315°
2026-05-09 20:31 38.41626 22.36938 34077 ft 409 kts 315°
2026-05-09 20:32 38.45816 22.32023 34089 ft 409 kts 315°
2026-05-09 20:32 38.49993 22.27105 34093 ft 409 kts 315°
2026-05-09 20:33 38.54173 22.22175 34090 ft 409 kts 315°
2026-05-09 20:33 38.58386 22.17268 34086 ft 410 kts 316°
2026-05-09 20:34 38.62679 22.12483 34104 ft 410 kts 316°
2026-05-09 20:34 38.66960 22.07715 34092 ft 410 kts 316°
2026-05-09 20:35 38.71257 22.02895 34097 ft 410 kts 316°
2026-05-09 20:35 38.75560 21.98088 34103 ft 410 kts 316°
2026-05-09 20:36 38.79868 21.93272 34115 ft 411 kts 316°
2026-05-09 20:36 38.84169 21.88432 34105 ft 409 kts 316°
2026-05-09 20:37 38.88419 21.83642 34108 ft 410 kts 316°
2026-05-09 20:37 38.92710 21.78817 34100 ft 410 kts 316°
2026-05-09 20:38 38.97006 21.73972 34111 ft 411 kts 316°
2026-05-09 20:38 39.01301 21.69113 34109 ft 411 kts 316°
2026-05-09 20:39 39.05606 21.64237 34110 ft 412 kts 316°
2026-05-09 20:39 39.09896 21.59362 34110 ft 411 kts 316°
2026-05-09 20:40 39.14196 21.54481 34102 ft 411 kts 316°
2026-05-09 20:40 39.18490 21.49602 34101 ft 411 kts 316°
2026-05-09 20:41 39.22748 21.44742 34105 ft 412 kts 316°
2026-05-09 20:41 39.27041 21.39841 34110 ft 411 kts 316°
2026-05-09 20:42 39.31325 21.34935 34108 ft 412 kts 315°
2026-05-09 20:42 39.35605 21.30028 34123 ft 411 kts 315°
2026-05-09 20:43 39.39870 21.25113 34120 ft 411 kts 315°
2026-05-09 20:43 39.44147 21.20209 34116 ft 410 kts 315°
2026-05-09 20:44 39.48390 21.15328 34128 ft 411 kts 315°
2026-05-09 20:44 39.52664 21.10397 34119 ft 412 kts 315°
2026-05-09 20:45 39.56952 21.05435 34129 ft 413 kts 315°
2026-05-09 20:45 39.61241 21.00465 34131 ft 413 kts 315°
2026-05-09 20:46 39.65515 20.95509 34134 ft 409 kts 315°
2026-05-09 20:46 39.69763 20.90578 34138 ft 410 kts 315°
2026-05-09 20:47 39.74016 20.85636 34148 ft 410 kts 315°
2026-05-09 20:47 39.78233 20.80718 34146 ft 409 kts 315°
2026-05-09 20:48 39.82489 20.75743 34131 ft 413 kts 315°
2026-05-09 20:48 39.86768 20.70731 34124 ft 413 kts 315°
2026-05-09 20:49 39.91045 20.65724 34128 ft 412 kts 315°
2026-05-09 20:49 39.95288 20.60735 34106 ft 411 kts 315°
2026-05-09 20:50 39.99551 20.55735 34105 ft 411 kts 315°
2026-05-09 20:50 40.03795 20.50731 34102 ft 411 kts 315°
2026-05-09 20:51 40.08260 20.46137 34103 ft 417 kts 325°
2026-05-09 20:51 40.13358 20.42414 34109 ft 420 kts 327°
2026-05-09 20:52 40.18480 20.38710 34111 ft 419 kts 326°
2026-05-09 20:52 40.23574 20.34999 34111 ft 419 kts 326°
2026-05-09 20:53 40.28680 20.31275 34109 ft 419 kts 326°
2026-05-09 20:53 40.33769 20.27545 34106 ft 419 kts 326°
2026-05-09 20:54 40.38856 20.23804 34126 ft 419 kts 326°
2026-05-09 20:54 40.43936 20.20073 34112 ft 418 kts 326°
2026-05-09 20:55 40.49015 20.16338 34119 ft 418 kts 326°
2026-05-09 20:55 40.54089 20.12596 34119 ft 419 kts 326°
2026-05-09 20:56 40.61716 20.06965 34115 ft 421 kts 326°
2026-05-09 20:57 40.66798 20.03196 34120 ft 418 kts 326°
2026-05-09 20:57 40.71874 19.99428 34117 ft 418 kts 326°
2026-05-09 20:58 40.76944 19.95658 34108 ft 419 kts 326°
2026-05-09 20:58 40.82011 19.91872 34103 ft 418 kts 326°
2026-05-09 20:59 40.87088 19.88096 34109 ft 418 kts 326°
2026-05-09 20:59 40.92130 19.84328 34088 ft 415 kts 326°
2026-05-09 21:00 40.99660 19.78688 34095 ft 418 kts 325°
2026-05-09 21:00 41.04727 19.74889 34102 ft 419 kts 325°
2026-05-09 21:01 41.09797 19.71076 34116 ft 419 kts 325°
2026-05-09 21:02 41.17408 19.65337 34096 ft 419 kts 325°
2026-05-09 21:02 41.22479 19.61489 34096 ft 419 kts 325°
2026-05-09 21:03 41.27531 19.57619 34094 ft 419 kts 325°
2026-05-09 21:03 41.32597 19.53766 34106 ft 419 kts 325°
2026-05-09 21:04 41.37656 19.49932 34108 ft 417 kts 325°
2026-05-09 21:04 41.42676 19.46137 34106 ft 417 kts 325°
2026-05-09 21:05 41.47734 19.42266 34105 ft 421 kts 325°
2026-05-09 21:05 41.52831 19.38383 34104 ft 421 kts 324°
2026-05-09 21:06 41.57909 19.34471 34119 ft 421 kts 324°
2026-05-09 21:06 41.62982 19.30593 34108 ft 419 kts 325°
2026-05-09 21:07 41.68041 19.26702 34105 ft 419 kts 324°
2026-05-09 21:07 41.73100 19.22803 34104 ft 420 kts 325°
2026-05-09 21:08 41.78161 19.18898 34107 ft 420 kts 324°
2026-05-09 21:08 41.83184 19.15001 34116 ft 418 kts 324°
2026-05-09 21:09 41.88225 19.11116 34105 ft 418 kts 324°
2026-05-09 21:09 41.93294 19.07181 34107 ft 421 kts 324°
2026-05-09 21:10 41.98375 19.03256 34110 ft 421 kts 324°
2026-05-09 21:10 42.03451 18.99310 34132 ft 421 kts 324°
2026-05-09 21:11 42.08509 18.95391 34111 ft 419 kts 324°
2026-05-09 21:12 42.21110 18.85583 34105 ft 419 kts 324°
2026-05-09 21:12 42.26153 18.81615 34120 ft 419 kts 324°
2026-05-09 21:13 42.30355 18.78336 34108 ft 418 kts 325°
2026-05-09 21:13 42.35414 18.74427 34115 ft 421 kts 324°
2026-05-09 21:14 42.40500 18.70476 34113 ft 422 kts 325°
2026-05-09 21:14 42.45608 18.66557 34112 ft 422 kts 325°
2026-05-09 21:15 42.50708 18.62621 34121 ft 420 kts 324°
2026-05-09 21:15 42.55747 18.58689 34113 ft 418 kts 324°
2026-05-09 21:16 42.60819 18.54777 34116 ft 419 kts 324°
2026-05-09 21:16 42.65843 18.50871 34118 ft 419 kts 324°
2026-05-09 21:17 42.70911 18.46926 34108 ft 420 kts 324°
2026-05-09 21:17 42.75965 18.42979 34123 ft 416 kts 324°
2026-05-09 21:18 42.81009 18.39039 34122 ft 419 kts 324°
2026-05-09 21:18 42.86059 18.35073 34125 ft 419 kts 324°
2026-05-09 21:19 42.96110 18.27122 34148 ft 418 kts 324°
2026-05-09 21:20 43.01141 18.23166 34144 ft 417 kts 324°
2026-05-09 21:20 43.06175 18.19185 34136 ft 417 kts 324°
2026-05-09 21:21 43.11209 18.15223 34126 ft 417 kts 324°
2026-05-09 21:21 43.16228 18.11248 34146 ft 416 kts 324°
2026-05-09 21:22 43.21229 18.07275 34123 ft 414 kts 324°
2026-05-09 21:22 43.26212 18.03301 34119 ft 414 kts 324°
2026-05-09 21:23 43.31166 17.99342 34119 ft 414 kts 324°
2026-05-09 21:23 43.36154 17.95350 34109 ft 415 kts 324°
2026-05-09 21:24 43.41132 17.91358 34111 ft 415 kts 324°
2026-05-09 21:24 43.46122 17.87358 34116 ft 415 kts 324°
2026-05-09 21:25 43.51109 17.83347 34122 ft 415 kts 324°
2026-05-09 21:25 43.56100 17.79321 34132 ft 415 kts 324°
2026-05-09 21:26 43.61049 17.75335 34159 ft 414 kts 324°
2026-05-09 21:26 43.66010 17.71319 34149 ft 414 kts 324°
2026-05-09 21:27 43.70981 17.67293 34148 ft 414 kts 324°
2026-05-09 21:27 43.75947 17.63260 34140 ft 414 kts 324°
2026-05-09 21:28 43.80909 17.59219 34144 ft 414 kts 324°
2026-05-09 21:28 43.85862 17.55182 34164 ft 409 kts 324°
2026-05-09 21:29 43.90767 17.51173 34151 ft 411 kts 324°
2026-05-09 21:29 43.95663 17.47149 34149 ft 412 kts 324°
2026-05-09 21:30 44.00593 17.43111 34153 ft 411 kts 324°
2026-05-09 21:30 44.05523 17.39060 34178 ft 409 kts 323°
2026-05-09 21:31 44.10396 17.35045 34150 ft 407 kts 323°
2026-05-09 21:31 44.15267 17.31026 34149 ft 407 kts 323°
2026-05-09 21:32 44.20147 17.26998 34155 ft 408 kts 323°
2026-05-09 21:32 44.25027 17.22955 34155 ft 408 kts 323°
2026-05-09 21:33 44.29896 17.18925 34160 ft 406 kts 323°
2026-05-09 21:33 44.34729 17.14898 34137 ft 407 kts 323°
2026-05-09 21:34 44.39598 17.10841 34122 ft 407 kts 323°
2026-05-09 21:34 44.44476 17.06776 34136 ft 408 kts 323°
2026-05-09 21:35 44.49364 17.02686 34137 ft 409 kts 322°
2026-05-09 21:35 44.54244 16.98592 34116 ft 408 kts 322°
2026-05-09 21:36 44.59119 16.94501 34108 ft 408 kts 322°
2026-05-09 21:36 44.63992 16.90405 34101 ft 408 kts 322°
2026-05-09 21:37 44.68841 16.86316 34106 ft 408 kts 322°
2026-05-09 21:37 44.73724 16.82193 34133 ft 409 kts 322°
2026-05-09 21:38 44.78580 16.78079 34102 ft 407 kts 322°
2026-05-09 21:38 44.83432 16.73969 34091 ft 407 kts 322°
2026-05-09 21:39 44.88255 16.69855 34082 ft 407 kts 322°
2026-05-09 21:39 44.93107 16.65732 34085 ft 407 kts 322°
2026-05-09 21:40 44.97937 16.61602 34088 ft 404 kts 322°
2026-05-09 21:40 45.02773 16.57486 34088 ft 405 kts 322°
2026-05-09 21:41 45.07589 16.53356 34081 ft 405 kts 321°
2026-05-09 21:41 45.12411 16.49220 34084 ft 405 kts 321°
2026-05-09 21:42 45.17241 16.45192 34105 ft 406 kts 323°
2026-05-09 21:42 45.22143 16.41221 34085 ft 401 kts 323°
2026-05-09 21:43 45.26981 16.37300 34092 ft 405 kts 323°
2026-05-09 21:43 45.31876 16.33314 34092 ft 405 kts 323°
2026-05-09 21:44 45.36777 16.29316 34090 ft 406 kts 323°
2026-05-09 21:44 45.41663 16.25339 34115 ft 403 kts 323°
2026-05-09 21:45 45.46500 16.21376 34087 ft 400 kts 323°
2026-05-09 21:45 45.51325 16.17421 34097 ft 400 kts 323°
2026-05-09 21:46 45.56132 16.13474 34095 ft 402 kts 323°
2026-05-09 21:46 45.60985 16.09473 34107 ft 402 kts 323°
2026-05-09 21:47 45.65840 16.05479 34109 ft 402 kts 323°
2026-05-09 21:47 45.70681 16.01471 34110 ft 402 kts 323°
2026-05-09 21:48 45.75529 15.97461 34114 ft 402 kts 323°
2026-05-09 21:48 45.80369 15.93439 34121 ft 402 kts 322°
2026-05-09 21:49 45.85205 15.89383 34120 ft 405 kts 323°
2026-05-09 21:49 45.90051 15.85327 34142 ft 401 kts 323°
2026-05-09 21:50 45.94897 15.81312 34135 ft 402 kts 323°
2026-05-09 21:51 46.02131 15.75288 34132 ft 402 kts 323°
2026-05-09 21:51 46.06967 15.71242 34139 ft 402 kts 323°
2026-05-09 21:52 46.11787 15.67174 34169 ft 398 kts 323°
2026-05-09 21:52 46.16543 15.63147 34142 ft 396 kts 323°
2026-05-09 21:53 46.21391 15.59278 34133 ft 399 kts 324°
2026-05-09 21:53 46.26266 15.55455 34149 ft 399 kts 324°
2026-05-09 21:54 46.33562 15.49687 34168 ft 398 kts 325°
2026-05-09 21:54 46.38412 15.45844 34143 ft 396 kts 324°
2026-05-09 21:55 46.43217 15.42024 34139 ft 396 kts 325°
2026-05-09 21:55 46.48086 15.38146 34154 ft 397 kts 325°
2026-05-09 21:56 46.52895 15.34304 34153 ft 396 kts 325°
2026-05-09 21:56 46.57722 15.30413 34185 ft 396 kts 325°
2026-05-09 21:57 46.62572 15.26495 34164 ft 398 kts 325°
2026-05-09 21:57 46.67386 15.22635 34172 ft 398 kts 326°
2026-05-09 21:58 46.72245 15.18753 34159 ft 398 kts 325°
2026-05-09 21:58 46.77057 15.14868 34151 ft 394 kts 325°
2026-05-09 21:59 46.81884 15.10978 34168 ft 397 kts 326°
2026-05-09 21:59 46.86731 15.07043 34157 ft 399 kts 326°
2026-05-09 22:00 46.90771 15.03763 34159 ft 398 kts 326°
2026-05-09 22:00 46.95615 14.99829 34162 ft 399 kts 326°
2026-05-09 22:01 47.00461 14.95885 34162 ft 399 kts 325°
2026-05-09 22:01 47.05310 14.91916 34164 ft 401 kts 326°
2026-05-09 22:02 47.10219 14.87905 34161 ft 404 kts 326°
2026-05-09 22:02 47.15097 14.83897 34168 ft 404 kts 326°
2026-05-09 22:03 47.20002 14.79855 34168 ft 404 kts 326°
2026-05-09 22:03 47.24906 14.75818 34167 ft 403 kts 326°
2026-05-09 22:04 47.29817 14.71770 34184 ft 406 kts 326°
2026-05-09 22:04 47.34749 14.67684 34145 ft 407 kts 327°
2026-05-09 22:05 47.39694 14.63588 34152 ft 407 kts 326°
2026-05-09 22:05 47.44533 14.59290 34158 ft 406 kts 324°
2026-05-09 22:06 47.49296 14.54815 34132 ft 406 kts 323°
2026-05-09 22:06 47.54047 14.50360 34136 ft 408 kts 324°
2026-05-09 22:07 47.58884 14.45838 34120 ft 409 kts 324°
2026-05-09 22:07 47.63667 14.41367 34118 ft 409 kts 324°
2026-05-09 22:08 47.68490 14.36843 34131 ft 411 kts 324°
2026-05-09 22:08 47.70852 14.34464 34261 ft 409 kts 317°
2026-05-09 22:08 47.72898 14.31577 34429 ft 406 kts 312°
2026-05-09 22:09 47.74855 14.28555 34619 ft 406 kts 311°
2026-05-09 22:09 47.76808 14.25528 34755 ft 406 kts 311°
2026-05-09 22:09 47.78773 14.22504 34866 ft 407 kts 312°
2026-05-09 22:09 47.80750 14.19488 34974 ft 408 kts 312°
2026-05-09 22:10 47.82740 14.16459 35094 ft 409 kts 312°
2026-05-09 22:10 47.84732 14.13430 35123 ft 410 kts 312°
2026-05-09 22:10 47.88712 14.07341 35083 ft 411 kts 312°
2026-05-09 22:11 47.92712 14.01216 35079 ft 412 kts 312°
2026-05-09 22:11 47.96689 13.95113 35076 ft 412 kts 312°
2026-05-09 22:12 48.00683 13.88961 35079 ft 412 kts 312°
2026-05-09 22:12 48.04678 13.82806 35067 ft 412 kts 312°
2026-05-09 22:13 48.08667 13.76637 35073 ft 412 kts 312°
2026-05-09 22:13 48.12653 13.70450 35069 ft 414 kts 312°
2026-05-09 22:14 48.16648 13.64241 35065 ft 414 kts 312°
2026-05-09 22:14 48.20647 13.58023 35062 ft 414 kts 312°
2026-05-09 22:15 48.24633 13.51803 35064 ft 414 kts 311°
2026-05-09 22:15 48.28611 13.45558 35067 ft 414 kts 311°
2026-05-09 22:16 48.32616 13.39282 35061 ft 418 kts 311°
2026-05-09 22:16 48.36623 13.32979 35061 ft 420 kts 311°
2026-05-09 22:17 48.40668 13.26619 35062 ft 420 kts 311°
2026-05-09 22:17 48.44693 13.20256 35064 ft 419 kts 311°
2026-05-09 22:18 48.48696 13.13855 35061 ft 419 kts 311°
2026-05-09 22:18 48.52666 13.07499 35067 ft 419 kts 311°
2026-05-09 22:19 48.56656 13.01150 35080 ft 414 kts 311°
2026-05-09 22:19 48.60639 12.94787 35062 ft 420 kts 311°
2026-05-09 22:20 48.64674 12.88334 35066 ft 423 kts 311°
2026-05-09 22:20 48.68718 12.81848 35064 ft 423 kts 311°
2026-05-09 22:21 48.72749 12.75366 35064 ft 423 kts 311°
2026-05-09 22:21 48.76755 12.68910 35071 ft 423 kts 311°
2026-05-09 22:22 48.80811 12.62438 35071 ft 423 kts 311°
2026-05-09 22:22 48.84843 12.55942 35077 ft 424 kts 311°
2026-05-09 22:23 48.88902 12.49359 35075 ft 426 kts 311°
2026-05-09 22:23 48.92954 12.42756 35075 ft 427 kts 311°
2026-05-09 22:24 48.96976 12.36194 35074 ft 427 kts 310°
2026-05-09 22:24 49.01028 12.29568 35078 ft 427 kts 310°
2026-05-09 22:25 49.05070 12.22924 35083 ft 427 kts 310°
2026-05-09 22:25 49.09115 12.16287 35082 ft 427 kts 310°
2026-05-09 22:26 49.13159 12.09628 35087 ft 430 kts 310°
2026-05-09 22:26 49.17228 12.02884 35083 ft 432 kts 310°
2026-05-09 22:27 49.21280 11.96177 35078 ft 432 kts 310°
2026-05-09 22:27 49.25353 11.89404 35093 ft 432 kts 310°
2026-05-09 22:28 49.29400 11.82606 35092 ft 432 kts 310°
2026-05-09 22:28 49.33445 11.75802 35097 ft 432 kts 310°
2026-05-09 22:29 49.37502 11.68998 35094 ft 432 kts 310°
2026-05-09 22:29 49.41580 11.62172 35096 ft 434 kts 310°
2026-05-09 22:30 49.45644 11.55303 35094 ft 435 kts 310°
2026-05-09 22:30 49.49711 11.48420 35089 ft 435 kts 310°
2026-05-09 22:31 49.53754 11.41582 35091 ft 434 kts 310°
2026-05-09 22:31 49.57821 11.34686 35086 ft 434 kts 310°
2026-05-09 22:32 49.61900 11.27805 35080 ft 433 kts 310°
2026-05-09 22:32 49.65915 11.20974 35060 ft 429 kts 309°
2026-05-09 22:33 49.69899 11.14064 35062 ft 435 kts 309°
2026-05-09 22:33 49.73947 11.07088 35064 ft 436 kts 309°
2026-05-09 22:34 49.78008 11.00134 35067 ft 435 kts 309°
2026-05-09 22:34 49.82076 10.93175 35075 ft 435 kts 309°
2026-05-09 22:35 49.86095 10.86238 35078 ft 429 kts 309°
2026-05-09 22:35 49.90078 10.79329 35076 ft 429 kts 309°
2026-05-09 22:36 49.94065 10.72395 35078 ft 433 kts 309°
2026-05-09 22:36 49.98116 10.65384 35079 ft 437 kts 309°
2026-05-09 22:37 50.02156 10.58328 35074 ft 437 kts 308°
2026-05-09 22:37 50.06159 10.51319 35085 ft 433 kts 309°
2026-05-09 22:38 50.10117 10.44367 35079 ft 428 kts 308°
2026-05-09 22:39 50.16027 10.33898 35082 ft 429 kts 308°
2026-05-09 22:39 50.19954 10.26901 35085 ft 429 kts 308°
2026-05-09 22:40 50.25940 10.16236 35088 ft 439 kts 308°
2026-05-09 22:40 50.29910 10.09131 35087 ft 427 kts 308°
2026-05-09 22:41 50.33846 10.02210 35085 ft 429 kts 308°
2026-05-09 22:41 50.37782 9.95194 35085 ft 429 kts 308°
2026-05-09 22:42 50.41702 9.88152 35088 ft 429 kts 308°
2026-05-09 22:42 50.45618 9.81095 35081 ft 429 kts 308°
2026-05-09 22:43 50.49548 9.73994 35094 ft 432 kts 307°
2026-05-09 22:43 50.53469 9.66896 35074 ft 428 kts 307°
2026-05-09 22:44 50.57370 9.59801 35082 ft 429 kts 307°
2026-05-09 22:44 50.61274 9.52691 35082 ft 429 kts 307°
2026-05-09 22:45 50.65146 9.45617 35086 ft 429 kts 307°
2026-05-09 22:45 50.69046 9.38485 35079 ft 428 kts 307°
2026-05-09 22:46 50.72915 9.31357 35089 ft 426 kts 307°
2026-05-09 22:47 50.78683 9.20718 35085 ft 426 kts 307°
2026-05-09 22:47 50.82542 9.13601 35088 ft 426 kts 307°
2026-05-09 22:48 50.85737 9.07671 35086 ft 425 kts 307°
2026-05-09 22:48 50.89576 9.00533 35075 ft 425 kts 307°
2026-05-09 22:49 50.93403 8.93414 34687 ft 423 kts 307°
2026-05-09 22:49 50.95302 8.89863 34424 ft 422 kts 307°
2026-05-09 22:49 50.97196 8.86318 34178 ft 421 kts 307°
2026-05-09 22:49 50.99090 8.82771 33917 ft 421 kts 307°
2026-05-09 22:50 51.00969 8.79214 33662 ft 421 kts 306°
2026-05-09 22:50 51.02846 8.75640 33400 ft 422 kts 306°
2026-05-09 22:50 51.04739 8.72055 33126 ft 423 kts 307°
2026-05-09 22:50 51.06632 8.68487 32856 ft 422 kts 307°
2026-05-09 22:51 51.08520 8.64975 32598 ft 422 kts 307°
2026-05-09 22:51 51.10422 8.61414 32242 ft 421 kts 307°
2026-05-09 22:51 51.12306 8.57869 31670 ft 419 kts 307°
2026-05-09 22:51 51.14092 8.54209 30812 ft 420 kts 301°
2026-05-09 22:52 51.15662 8.50253 29774 ft 426 kts 300°
2026-05-09 22:52 51.17210 8.46212 28874 ft 427 kts 299°
2026-05-09 22:52 51.18764 8.42191 28136 ft 426 kts 299°
2026-05-09 22:52 51.20333 8.38159 27495 ft 429 kts 300°
2026-05-09 22:53 51.21910 8.34136 26836 ft 427 kts 300°
2026-05-09 22:53 51.23479 8.30130 26205 ft 423 kts 299°
2026-05-09 22:53 51.25033 8.26160 25586 ft 419 kts 299°
2026-05-09 22:53 51.26563 8.22232 24980 ft 415 kts 299°
2026-05-09 22:54 51.28083 8.18332 24383 ft 411 kts 298°
2026-05-09 22:54 51.29588 8.14472 23804 ft 408 kts 298°
2026-05-09 22:54 51.31060 8.10688 23168 ft 405 kts 298°
2026-05-09 22:54 51.32538 8.06881 22496 ft 402 kts 298°
2026-05-09 22:55 51.34007 8.03087 21828 ft 399 kts 298°
2026-05-09 22:55 51.35466 7.99321 21180 ft 397 kts 298°
2026-05-09 22:55 51.36910 7.95588 20545 ft 394 kts 298°
2026-05-09 22:55 51.38351 7.91850 19921 ft 392 kts 298°
2026-05-09 22:56 51.39777 7.88146 19312 ft 390 kts 299°
2026-05-09 22:56 51.41196 7.84458 18714 ft 388 kts 299°
2026-05-09 22:56 51.42605 7.80784 18092 ft 386 kts 299°
2026-05-09 22:56 51.43884 7.77027 17413 ft 381 kts 291°
2026-05-09 22:57 51.44600 7.72981 16757 ft 376 kts 277°
2026-05-09 22:57 51.44634 7.68841 16127 ft 371 kts 262°
2026-05-09 22:57 51.44075 7.64870 15512 ft 368 kts 253°
2026-05-09 22:57 51.43328 7.60910 14890 ft 366 kts 253°
2026-05-09 22:58 51.42600 7.57067 14302 ft 363 kts 253°
2026-05-09 22:58 51.41818 7.53235 13690 ft 361 kts 248°
2026-05-09 22:58 51.40791 7.49574 13044 ft 359 kts 245°
2026-05-09 22:58 51.39721 7.45975 12394 ft 356 kts 245°
2026-05-09 22:59 51.38659 7.42406 11756 ft 353 kts 245°
2026-05-09 22:59 51.37612 7.38877 11137 ft 351 kts 245°
2026-05-09 22:59 51.36571 7.35355 10527 ft 348 kts 245°
2026-05-09 22:59 51.35544 7.31877 9929 ft 345 kts 246°
2026-05-09 23:00 51.34522 7.28406 9258 ft 343 kts 246°
2026-05-09 23:00 51.33509 7.24971 8601 ft 341 kts 245°
2026-05-09 23:00 51.32499 7.21560 7961 ft 338 kts 245°
2026-05-09 23:00 51.31505 7.18213 7347 ft 337 kts 245°
2026-05-09 23:01 51.30506 7.14840 6733 ft 335 kts 245°
2026-05-09 23:01 51.29511 7.11486 6107 ft 333 kts 244°
2026-05-09 23:01 51.28519 7.08145 5463 ft 332 kts 244°
2026-05-09 23:01 51.27528 7.04819 4843 ft 331 kts 244°
2026-05-09 23:02 51.26539 7.01507 4203 ft 330 kts 244°
2026-05-09 23:02 51.25550 6.98201 3580 ft 329 kts 244°
2026-05-09 23:02 51.24568 6.94921 3170 ft 322 kts 244°
2026-05-09 23:02 51.23622 6.91770 3039 ft 307 kts 244°
2026-05-09 23:03 51.22729 6.88771 3014 ft 291 kts 244°
2026-05-09 23:03 51.21881 6.85935 3015 ft 274 kts 244°
2026-05-09 23:03 51.21077 6.83275 2995 ft 261 kts 244°
2026-05-09 23:03 51.20176 6.80761 2981 ft 261 kts 233°
2026-05-09 23:04 51.19078 6.78452 2994 ft 261 kts 232°
2026-05-09 23:04 51.17969 6.76159 2995 ft 261 kts 231°
2026-05-09 23:04 51.16863 6.73864 2994 ft 261 kts 232°
2026-05-09 23:04 51.15776 6.71605 2977 ft 250 kts 232°
2026-05-09 23:05 51.14770 6.69514 2980 ft 235 kts 232°
2026-05-09 23:05 51.13790 6.67470 2962 ft 220 kts 232°
2026-05-09 23:05 51.13111 6.65419 2950 ft 200 kts 259°
2026-05-09 23:05 51.13246 6.63315 3008 ft 194 kts 294°
2026-05-09 23:06 51.14093 6.61684 3024 ft 193 kts 321°
2026-05-09 23:06 51.15145 6.60384 3011 ft 185 kts 328°
2026-05-09 23:06 51.16321 6.59815 2980 ft 179 kts 352°
2026-05-09 23:06 51.17555 6.59804 2899 ft 178 kts 10°
2026-05-09 23:07 51.18761 6.60195 2780 ft 176 kts 13°
2026-05-09 23:07 51.19950 6.60592 2577 ft 174 kts 13°
2026-05-09 23:07 51.21049 6.61317 2341 ft 171 kts 37°
2026-05-09 23:07 51.21899 6.62635 2127 ft 170 kts 50°
2026-05-09 23:08 51.22615 6.64081 1902 ft 163 kts 52°
2026-05-09 23:08 51.23299 6.65456 1725 ft 151 kts 52°
2026-05-09 23:08 51.23920 6.66747 1508 ft 146 kts 52°
2026-05-09 23:08 51.24537 6.68038 1295 ft 146 kts 52°
2026-05-09 23:09 51.25148 6.69318 1096 ft 145 kts 52°
2026-05-09 23:09 51.25754 6.70599 912 ft 144 kts 52°
2026-05-09 23:09 51.26362 6.71874 685 ft 144 kts 51°
2026-05-09 23:09 51.26970 6.73136 511 ft 143 kts 53°
2026-05-09 23:10 51.27573 6.74395 334 ft 143 kts 52°
2026-05-09 23:10 51.28176 6.75657 146 ft 141 kts 52°
2026-05-09 23:10 51.28691 6.76747 122 ft 98 kts 53°
2026-05-09 23:10 51.29006 6.77393 119 ft 49 kts 54°
2026-05-09 23:11 51.29146 6.77689 121 ft 30 kts 52°
2026-05-09 23:11 51.29275 6.77960 123 ft 28 kts 52°
2026-05-09 23:11 51.29284 6.78101 124 ft 15 kts 108°
2026-05-09 23:11 51.29209 6.78228 119 ft 18 kts 179°
2026-05-09 23:12 51.29121 6.78097 121 ft 20 kts 234°
2026-05-09 23:12 51.29027 6.77903 123 ft 24 kts 230°
2026-05-09 23:12 51.28916 6.77678 118 ft 27 kts 234°
2026-05-09 23:12 51.28803 6.77424 121 ft 30 kts 233°
2026-05-09 23:13 51.28673 6.77158 124 ft 31 kts 232°
2026-05-09 23:13 51.28535 6.76874 119 ft 27 kts 233°
2026-05-09 23:13 51.28444 6.76775 122 ft 14 kts 149°
2026-05-09 23:13 51.28361 6.76814 123 ft 13 kts 242°
2026-05-09 23:14 51.28351 6.76682 121 ft 11 kts 225°
2026-05-09 23:14 51.28308 6.76575 123 ft 14 kts 231°
2026-05-09 23:14 51.28235 6.76443 121 ft 18 kts 203°
2026-05-09 23:14 51.28194 6.76486 121 ft 7 kts 73°
2026-05-09 23:15 51.28195 6.76531 122 ft 2 kts 93°
2026-05-09 23:15 51.28193 6.76562 122 ft 4 kts 96°
2026-05-09 23:15 51.28193 6.76563 122 ft 0 kts 96°